METEOR 2-6 DEB, 28986

Orbit data source: Space-Track

METEOR 2-6 DEB, 28986 is space debris in LEO originally from a launch on Tue, 09 Sep 1980 UTC launched from the Plesetsk Missile And Space Complex (PKMTR). Debris objects in space refer to the collection of defunct objects orbiting the Earth. Examples of debris include non-operational satellites, rocket bodies, and fragments generated from explosions, collisions, or faulty payload assembly.

Loading next visibility...
Identifier
28986, 1980-073C
Orbit
LEO
Country
Flag of CISCIS
Related business
Manufacturer
Unknown
Mission
Spacecraft
Bus & Motor
Unknown
Mass
Unknown
Launch date (UTC)
1980-09-09 (45 years ago)
Launch vehicle
Unknown
Launch site
Plesetsk Missile And Space Complex (PKMTR)
Object type
Payload
Rocket body
Debris
Shape & HBR
Unknown shape, 0.1 m
Radar Cross Section
Small (<0.1 m²)

Expand to show TLE details & history
Last TLE update: 2 days ago

TLE from 2 days ago
0 METEOR 2-6 DEB
1 28986U 80073C   25351.02732345  .00013263  00000-0  27480-2 0  9991
2 28986  81.2052  97.1551 0024284 208.1350 151.8538 14.59983958625364
Epoch: 2025-12-17T00:39Z
TLE epoch observation values (Epoch: 2025-12-17T00:39:20.746Z)
Latitude
0.00001°
Longitude
1.41558°
Altitude
711.346 km
Speed
7.492 km/s
True Right ascension
06h 28m 37s
True Declination
0° 00' 00"
Sunlit
Object was in full shadow at epoch
Visualization orbit readout
Latitude
Unknown
Longitude
Unknown
Altitude
Unknown
Speed
Unknown
Apparent Right ascension
Unknown
Apparent Declination
Unknown
Sunlit
N/A
Visualization observer readout
Local Sidereal Time
16:32:32
Azimuth
Unknown
Elevation
Unknown
Doppler factor
Unknown
Orbital elements
Apogee altitude
707.5 km
Perigee altitude
673.17 km
Semi-major axis
7,068.472 km
Eccentricity
0.00243
Inclination
81.2052°
RAAN
97.1551°
Arg. of periapsis
208.135°
True anomaly
151.98472°
Mean anomaly
151.8538°
Eccentric anomaly
151.91929°
Mean motion
3.6522 °/min
Orbital period
98.57 mins
BSTAR
0.002748
Loading maneuver chart data...
Computing Atmospheric mass density...
Loading historical data...
Loading historical data...
Loading historical data...
Loading historical data...
Loading historical data...
Loading historical data...
Loading historical data...

Documentation

Showing up to 5 results
|